Content
SEND FEEDBACK

Daily
Averages
Monthly
Summary
United States of America

DURANGO, COLORADO


Home > North America > United States > Colorado
Elevation: 6685 feet     Latitude: 37 09N     Longitude: 107 45W

WEATHER
 
SELECT A DAY
Number of Records: 183,107;   Date Range: 1/1/95 - 9/3/14
 
SHARE

PRINT THIS DATA

[ ← Previous Day ]
WEATHER ALMANAC - MAY 17, 2013
[ Next Day → ]
[ °C ]   °F
Weather ElementAverageHighLow
Temperature59.9 °F77 °F (3:53 pm)35.1 °F (4:53 am)
Dewpoint18 °F27 °F (8:53 am)8.1 °F (6:53 pm)
Humidity24.6 %54 % (4:53 am)8 % (2:53 pm)
Barometer29.86 in29.95 in (6:53 am)29.80 in (8:53 pm)
Wind Speed6.9 mph16.1 mph (3:53 pm)
Wind Gust27.6 mph (2:53 pm)
Weather ElementAverage
Visibility10 mi
Wind DirectionESE (124.8 °)

Weather ElementTotal
Precipitation---
Heating Degree Days9 (Base 65)
Growing Degree Days6.1 (Base 50)
Averaged from 21 records on May 17, 2013
WEATHER CONDITIONS BREAKOUT
WIND DIRECTION BREAKOUT
WEATHER BY HOUR - MAY 17, 2013
[ °C ]   °F
Local TimeTemperatureDewpointHumidityBarometerVisibilityWind DirectionWind SpeedGust SpeedPrecipitationEventsConditions
1:53 AM45.0 °F24.1 °F44 %29.84 in10.0 miNNE (20°)4.6 mphClear
2:53 AM43.0 °F23.0 °F45 %29.85 in10.0 miCalmClear
3:53 AM39.0 °F21.9 °F50 %29.89 in10.0 miCalmClear
4:53 AM35.1 °F19.9 °F54 %29.91 in10.0 miNNE (20°)4.6 mphClear
6:53 AM39.9 °F23.0 °F51 %29.95 in10.0 miCalmClear
7:53 AM48.0 °F23.0 °F37 %29.94 in10.0 miCalmClear
8:53 AM57.0 °F27.0 °F32 %29.91 in10.0 miENE (60°)4.6 mphClear
9:53 AM64.0 °F23.0 °F21 %29.91 in10.0 miENE (60°)4.6 mphClear
10:53 AM66.0 °F23.0 °F20 %29.89 in10.0 miVariable5.8 mphClear
11:53 AM69.1 °F23.0 °F18 %29.89 in10.0 miNNE (30°)4.6 mphClear
1:53 PM75.0 °F12.9 °F9 %29.85 in10.0 miSSW (200°)13.8 mph26.5 mphClear
2:53 PM73.9 °F9.0 °F8 %29.85 in10.0 miSSW (210°)9.2 mph27.6 mphClear
3:53 PM77.0 °F12.0 °F8 %29.84 in10.0 miSW (230°)16.1 mph24.2 mphClear
4:53 PM75.9 °F10.9 °F8 %29.83 in10.0 miSW (230°)11.5 mph20.7 mphClear
5:53 PM75.0 °F9.0 °F8 %29.81 in10.0 miWSW (250°)12.7 mphClear
6:53 PM71.1 °F8.1 °F9 %29.82 in10.0 miWSW (250°)15.0 mph18.4 mphClear
7:53 PM66.9 °F10.9 °F11 %29.82 in10.0 miWSW (250°)6.9 mphClear
8:53 PM64.0 °F16.0 °F16 %29.80 in10.0 miWest (270°)15.0 mphClear
9:53 PM62.1 °F19.0 °F19 %29.82 in10.0 miWest (270°)11.5 mphClear
10:53 PM57.9 °F19.9 °F23 %29.83 in10.0 miWest (270°)4.6 mphClear
11:53 PM53.1 °F19.0 °F26 %29.84 in10.0 miCalmClear
Hourly data recorded from KDRO, located miles away from Durango, Colorado







STORIES FROM OUR PARTNERS